User: anonymous
Location: Vancouver
(49.2500°N, 123.1330°W)
Time: 19:22:40
(UTC-07:00)
Language:

Transit 2A Rocket - Orbit

View from above orbital plane
View from above orbital plane
View from above satellite
View from above satellite

Ground track
Ground track

The orbit data is extracted from the following two-line orbital elements,

1 00047U 60007C   14232.10900687  .00000149  00000-0  59545-4 0  2817
2 00047 066.6661 083.8497 0223803 058.7965 303.4863 14.41190065828298
Epoch (UTC): 20 August 2014 02:36:58
Eccentricity: 0.0223803
inclination: 66.6661°
perigee height: 595 km
apogee height: 914 km
right ascension of ascending node: 83.8497°
argument of perigee: 58.7965°
revolutions per day: 14.41190065
mean anomaly at epoch: 303.4863°
orbit number at epoch: 82829

The dashed part of the orbit path shows where the satellite is in the earth's shadow,  

DLR